811  
ASUS42 KCAE 190610  
RWRCAE  
REGIONAL WEATHER ROUNDUP  
NATIONAL WEATHER SERVICE COLUMBIA SC  
200 AM EDT TUE MAR 19 2019  
 
NOTE: "FAIR" INDICATES FEW OR NO CLOUDS BELOW 12,000 FEET WITH NO  
SIGNIFICANT WEATHER AND/OR S TO VISIBILITY
.  
 
NOT ALL STATIONS ARE QUALITY CONTROLLED BY THE NATIONAL  
WEATHER SERVICE. USE DATA WITH CAUTION...ESPECIALLY  
DEWPOINT OBSERVATIONS.  
 
SCZ001>056-GAZ040-063>065-077-190700-   
..UPSTATE SOUTH CAROLINA
 
 
 
CITY SKY/WX TMP DP RH WIND PRES REMARKS
 
ANDERSON FAIR 44 16 32 NE10 30.32S  
6HR MIN TEMP: 43; 6HR MAX TEMP: 53;  
 
LIBERTY FAIR 40 17 39 E5 30.31S  
6HR MIN TEMP: 37; 6HR MAX TEMP: 50;  
 
SPARTANBURG FAIR 41 18 38 NE7 30.33F  
CLEMSON FAIR 41 22 46 NE6 30.33S  
6HR MIN TEMP: 41; 6HR MAX TEMP: 52;  
 
GREENVILLE FAIR 43 16 33 NE8 30.33F  
6HR MIN TEMP: 43; 6HR MAX TEMP: 51;  
 
GREENWOOD FAIR 43 16 33 NE10 30.34R  
6HR MIN TEMP: 43; 6HR MAX TEMP: 53;  
 
GREER FAIR 40 16 37 NE6 30.33S  
6HR MIN TEMP: 40; 6HR MAX TEMP: 49;  
 
ROCK HILL FAIR 43 18 36 NE8 30.34S  
6HR MIN TEMP: 43; 6HR MAX TEMP: 51;  
 
CHESTER FAIR 41 18 38 N8 30.34S  
LAURENS FAIR 43 18 36 NE7 30.33R  
 
   
..CENTRAL SOUTH CAROLINA
 
 
 
CITY SKY/WX TMP DP RH WIND PRES REMARKS
 
COLUMBIA APT FAIR 48 17 29 N9 30.31R  
6HR MIN TEMP: 48; 6HR MAX TEMP: 60;  
 
COLUMBIA OWENS FAIR 49 15 25 VRB6 30.32R  
6HR MIN TEMP: 49; 6HR MAX TEMP: 60;  
 
MCENTIRE ANGB FAIR 47 15 27 NE7 30.31R  
6HR MIN TEMP: 47; 6HR MAX TEMP: 57;  
 
ORANGEBURG FAIR 49 19 30 NE9 30.29R  
6HR MIN TEMP: 49; 6HR MAX TEMP: 60;  
 
SUMTER SHAW FAIR 46 17 31 N15 30.30R  
6HR MIN TEMP: 46; 6HR MAX TEMP: 57;  
 
NEWBERRY FAIR 41 21 45 NE8 30.35S  
AIKEN FAIR 45 18 33 NE14 30.32S  
BARNWELL FAIR 50 19 29 NE12 30.28S  
MANNING FAIR 46 23 39 NE8 30.29R  
CAMDEN FAIR 46 16 29 NE12G21 30.33R  
LANCASTER FAIR 43 12 28 N7 30.33F  
WINNSBORO FAIR 43 19 39 NE5 30.31R  
 
   
..EASTERN AND COASTAL SOUTH CAROLINA
 
 
 
CITY SKY/WX TMP DP RH WIND PRES REMARKS
 
MYRTLE BEACH FAIR 49 35 58 N20 30.27R  
6HR MIN TEMP: 49; 6HR MAX TEMP: 57;  
 
N MYRTLE BCH FAIR 48 36 63 NE9 30.27R  
6HR MIN TEMP: 48; 6HR MAX TEMP: 56;  
 
CONWAY FAIR 36 23 60 NE10 30.28R WCI 28  
MARION FAIR 45 34 65 NE10 30.31R  
HARTSVILLE FAIR 43 19 39 N6 30.31R  
FLORENCE FAIR 48 23 37 NE12 30.31R  
6HR MIN TEMP: 48; 6HR MAX TEMP: 57;  
 
DARLINGTON FAIR 45 22 40 N7 30.32R  
6HR MIN TEMP: 45; 6HR MAX TEMP: 54;  
 
CHARLESTON APT MOCLDY 51 23 33 N12G21 30.24R  
6HR MIN TEMP: 49; 6HR MAX TEMP: 56;  
 
MOUNT PLEASANT FAIR 52 30 43 CALM 30.24S  
WALTERBORO FAIR 52 25 35 CALM 30.26S  
BEAUFORT FAIR 52 32 46 N8 30.23S  
6HR MIN TEMP: 51; 6HR MAX TEMP: 60;  
 
HILTON HEAD FAIR 55 32 41 NE14 30.22R  
 
   
..EASTERN GEORGIA
 
 
 
CITY SKY/WX TMP DP RH WIND PRES REMARKS
 
AUGUSTA BUSH F FAIR 49 21 33 NE8 30.30R  
6HR MIN TEMP: 47; 6HR MAX TEMP: 59;  
 
AUGUSTA DANIEL FAIR 50 15 24 N9 30.30R  
6HR MIN TEMP: 50; 6HR MAX TEMP: 62;  
 
THOMSON FAIR 48 17 28 E9 30.36R  
6HR MIN TEMP: 48; 6HR MAX TEMP: 58;  
 
CLAXTON FAIR 54 32 43 N6 30.25R  
6HR MIN TEMP: 50; 6HR MAX TEMP: 58;  
 
SYLVANIA FAIR 53 29 40 NE9 30.26R  
6HR MIN TEMP: 53; 6HR MAX TEMP: 61;  
 
STATESBORO FAIR 51 30 43 N6 30.25R  
6HR MIN TEMP: 47; 6HR MAX TEMP: 57;  
 
SAVANNAH FAIR 55 31 39 NE12 30.22R  
6HR MIN TEMP: 51; 6HR MAX TEMP: 63;  
 
   
..SOUTHERN NORTH CAROLINA
 
 
 
CITY SKY/WX TMP DP RH WIND PRES REMARKS
 
CHARLOTTE MOCLDY 42 16 34 N13 30.34F  
6HR MIN TEMP: 42; 6HR MAX TEMP: 50;  
 
MONROE FAIR 42 18 37 NE10 30.33R  
6HR MIN TEMP: 40; 6HR MAX TEMP: 53;  
 
WADESBORO FAIR 42 17 35 N7 30.34S  
ROCKINGHAM FAIR 42 25 49 N3 30.33S  
RUTHERFORDTON FAIR 37 14 38 N5 30.35S WCI 34  
ASHEVILLE FAIR 37 13 37 N7 30.32S WCI 32  
6HR MIN TEMP: 36; 6HR MAX TEMP: 42;  
 

 
 
 
CLICK HERE TO GO TO PREVIOUS BULLETINS.

The Nexlab SC Page
The Nexlab GA Page Main Text Page